STARLINK-34226, 64494

Orbit data source: Space-Track

STARLINK-34226, 64494 is a payload satellite owned by SpaceX/Seattle (US) in LEO that was launched on Mon, 23 Jun 2025 UTC via an FALCON 9 launch vehicle from the Air Force Eastern Test Range (AFETR). Payload-class satellites include a variety of spacecraft equipped with specific instruments for various scientific and technological missions. These include communications satellites like Starlink; space stations such as the ISS; scientific satellites like the Hubble; Earth observation satellites from companies like Planet Labs, Umbra, and HawkEye 360; GPS; miniature CubeSats for education and research; and military/defense satellites.

Loading next visibility...
Identifier
64494, 2025-133Y
Orbit
LEO
Country
Flag of USUS
Related business
Manufacturer
SpaceX/Seattle
Mission
Operational Commercial Communications
Bus & Motor
STARLINK V2MO, Unknown motor
Mass
575 kg wet, ~530 kg dry
Launch date (UTC)
2025-06-23 (1 year ago)
Launch vehicle
FALCON 9
Launch site
Air Force Eastern Test Range (AFETR)
Object type
Payload
Rocket body
Debris
Shape & HBR
Box + 2 Pan, 17.7 m
Radar Cross Section
36.964 m², Large (>1 m²)

Expand to show TLE details & history
Last TLE update: 1 day ago

TLE from 1 day ago
0 STARLINK-34226
1 64494U 25133Y   26170.84868465  .00011416  00000-0  37889-3 0  9997
2 64494  53.1620   1.9731 0001582  88.5417 271.5766 15.31716162 56666
Epoch: 2026-06-19T20:22Z
TLE epoch observation values (Epoch: 2026-06-19T20:22:06.353Z)
Latitude
-0.00001°
Longitude
148.37485°
Altitude
471.563 km
Speed
7.631 km/s
True Right ascension
00h 07m 53s
True Declination
0° 00' 00"
Sunlit
Object was in daylight at epoch
Visualization orbit readout
Latitude
Unknown
Longitude
Unknown
Altitude
Unknown
Speed
Unknown
Apparent Right ascension
Unknown
Apparent Declination
Unknown
Sunlit
N/A
Visualization observer readout
Local Sidereal Time
07:20:25
Azimuth
Unknown
Elevation
Unknown
Doppler factor
Unknown
Orbital elements
Apogee altitude
472.032 km
Perigee altitude
469.865 km
Semi-major axis
6,849.085 km
Eccentricity
0.00016
Inclination
53.162°
RAAN
1.9731°
Arg. of periapsis
88.5417°
True anomaly
271.55848°
Mean anomaly
271.5766°
Eccentric anomaly
271.56754°
Mean motion
3.82908 °/min
Orbital period
94.02 mins
BSTAR
0.00037889
Loading maneuver chart data...
Computing Atmospheric mass density...
Loading historical data...
Loading historical data...
Loading historical data...
Loading historical data...
Loading historical data...
Loading historical data...
Loading historical data...

Documentation

Showing up to 5 results
|